Location: Utrecht
(52.0907°N, 5.1214°E)
Time: 16:45:52
(UTC+02:00)

ESTCUBE 1 - Visible Passes

Search period start: 26 June 2022 00:00
Search period end: 06 July 2022 00:00
Orbit: 644 x 659 km, 97.9° (Epoch: 26 June)

Date Brightness Start Highest point End Pass type
(mag) Time Alt. Az. Time Alt. Az. Time Alt. Az.
26 Jun ? 00:06:34 12° S 00:10:27 46° W 00:14:47 10° NNW visible
26 Jun ? 22:56:31 10° SE 23:00:43 42° ENE 23:04:58 10° N visible
27 Jun ? 00:33:53 10° SSW 00:37:38 27° W 00:41:28 10° NW visible
27 Jun ? 23:23:22 11° SSE 23:27:39 73° ENE 23:32:08 10° N visible
28 Jun ? 01:02:09 10° SW 01:04:55 16° W 01:07:43 10° NW visible
28 Jun ? 23:50:41 13° S 23:54:40 65° WSW 23:59:08 10° NNW visible
30 Jun ? 00:18:00 12° SSW 00:21:47 37° W 00:25:58 10° NNW visible
30 Jun ? 23:07:37 10° SE 23:11:57 53° ENE 23:16:20 10° N visible
01 Jul ? 00:45:34 10° SW 00:49:01 22° W 00:52:30 10° NW visible
01 Jul ? 23:34:48 12° SSE 23:38:55 89° W 23:43:25 10° NNW visible
02 Jul ? 01:14:21 10° WSW 01:16:21 13° W 01:18:21 10° WNW visible
03 Jul ? 00:02:07 13° S 00:05:58 51° W 00:10:22 10° NNW visible
03 Jul ? 22:52:07 10° SE 22:56:16 39° ENE 23:00:27 10° N visible
04 Jul ? 00:29:26 11° SSW 00:33:08 29° W 00:37:04 10° NNW visible
04 Jul ? 23:18:55 11° SSE 23:23:10 68° ENE 23:27:38 10° N visible
05 Jul ? 00:57:23 10° SW 01:00:23 17° W 01:03:25 10° NW visible
05 Jul ? 23:46:14 13° S 23:50:10 71° WSW 23:54:40 10° NNW visible
